RH
25 37 34 24 26 26 32 41 52 44 32 40 43 41 34 28 27 20 17 15 17 20 22 22 29 34 31 29 30 32 33 35 33 31 25 20 27 28 25 23 22 22 23 21
34 37 25 22 25 29 36 49 58 40 33 43 46 47 40 32 29 27 21 19 15 17 19 22 27 31 29 29 30 30 32 35 33 33 24 19 20 21 22 25 23 19 20 18
34 28 23 25 28 37 41 45 45 48 48 47 55 63 33 20 17 19 23 25 18 14 16 21 26 28 28 28 31 28 27 31 34 34 24 19 20 22 22 22 22 20 21 19
37 28 29 31 33 37 52 39 44 54 70 91 55 79 38 23 19 17 19 21 23 22 14 19 24 26 27 28 29 27 25 27 34 34 23 20 21 22 24 24 22 22 22 21
50 36 36 40 40 37 50 44 50 49 71 95 62 92 78 23 24 24 26 23 24 24 21 16 21 24 26 28 26 23 25 25 35 32 24 22 22 23 23 23 22 23 24 23
39 32 42 44 39 38 40 58 61 48 64 94 74 74 75 37 27 20 23 21 23 23 23 22 19 22 26 31 29 24 26 30 37 29 26 25 24 25 25 25 25 26 27 27
51 42 41 39 54 43 54 88 95 91 93 90 67 71 71 33 29 21 22 22 22 21 19 17 18 21 27 35 34 32 31 36 36 30 30 28 27 27 27 27 26 27 29 30
66 67 53 41 78 85 58 95 95 91 90 81 50 75 76 26 20 17 20 23 26 24 21 22 21 24 36 42 44 48 46 43 35 34 34 33 31 30 29 29 29 32 34 32
68 52 43 44 40 65 65 85 50 93 83 92 77 47 35 29 22 19 24 29 30 27 26 26 29 38 49 60 62 65 61 52 44 41 38 38 37 37 34 32 34 36 35 33
64 78 49 48 49 52 80 65 87 97 93 89 63 65 79 37 28 22 32 32 35 36 39 41 43 49 58 63 66 64 57 54 52 47 44 42 39 35 34 35 34 32 30 28
95 87 64 54 72 84 73 96 78 86 94 96 96 82 92 68 60 73 51 34 33 36 39 42 48 52 59 63 66 70 71 65 59 50 42 36 36 40 39 34 32 32 32 32
79 94 99 68 88 83 83 91 89 95 87 92 97 81 63 96 98 76 47 42 43 44 47 50 44 50 56 60 66 77 75 65 52 42 55 73 79 48 40 39 38 36 33 32
77 94 92 81 85 73 90 93 99 91 91 91 92 80 70 81 91 94 90 86 83 75 68 66 55 55 60 64 68 72 64 53 76 88 85 65 52 44 36 32 31 31 33 36
64 92 79 69 65 76 94 96 91 83 97 78 79 76 71 98 99 88 65 64 64 64 62 64 67 70 70 67 62 62 79 92 90 66 46 40 36 36 33 32 34 35 39 38
73 91 73 75 68 71 74 78 87 96 86 94 74 81 76 88 86 69 57 59 58 62 64 65 67 68 66 72 90 96 76 51 45 40 38 36 35 34 34 36 36 38 40 40
71 88 90 87 76 80 86 80 80 81 83 92 92 95 88 80 84 80 84 74 70 75 73 69 76 90 90 56 45 44 42 42 43 42 40 41 41 41 40 41 44 51 53 54
87 93 98 88 76 98 98 90 86 90 91 89 98 98 89 90 87 85 84 93 87 88 93 73 73 61 50 52 54 57 56 53 51 47 44 46 49 52 59 68 70 71 73 73
96 97 98 94 97 94 78 83 83 87 92 91 94 91 89 94 97 88 100 99 100 90 92 65 58 61 62 62 62 60 58 56 53 50 50 56 69 80 85 84 91 98 99 94
78 93 97 97 97 79 66 68 82 75 96 97 96 92 91 92 89 100 97 95 90 79 71 56 64 65 62 62 63 62 57 56 53 50 50 59 87 87 88 100 100 100 100 97
86 97 97 97 96 95 77 56 54 65 99 99 99 99 98 95 88 98 87 82 78 80 72 62 66 68 67 65 67 62 57 51 44 47 58 76 100 100 100 99 100 98 97 94
94 98 94 91 94 83 59 70 80 95 98 100 92 89 89 97 92 75 68 71 80 82 81 73 64 66 66 69 63 54 44 38 44 55 77 99 88 94 98 95 93 93 94 97
90 94 98 92 92 90 93 83 85 98 98 84 62 60 61 62 67 74 75 74 81 82 75 72 66 64 66 61 48 40 37 40 50 63 80 82 96 94 94 93 91 94 95 95
92 82 82 68 85 98 99 98 70 60 64 64 71 90 95 89 87 95 96 98 96 77 72 72 69 63 55 42 42 39 41 57 71 76 80 84 86 90 93 99 96 96 96 97
67 74 88 76 97 96 96 71 59 76 81 81 86 88 77 80 78 90 90 74 75 82 79 71 62 48 40 43 48 55 62 73 79 79 80 84 91 99 95 90 92 96 94 94
71 90 87 77 98 97 85 54 53 46 51 57 57 59 62 64 64 73 75 79 82 79 70 59 48 43 43 47 50 58 72 79 82 83 83 85 94 94 93 87 90 95 90 99
65 85 96 97 79 77 52 54 51 45 48 52 56 57 64 71 74 80 84 84 78 71 59 47 42 43 44 48 52 67 76 83 91 91 90 87 100 94 94 91 84 78 95 100
Wind_Speed
2 3 3 4 4 3 3 5 8 10 4 5 7 16 21 20 24 17 18 23 24 24 24 23 24 25 26 24 20 15 11 6 3 2 4 5 5 9 11 14 14 15 17 19
1 2 5 1 1 2 4 8 7 6 4 8 10 23 20 5 6 7 22 17 26 25 25 25 25 26 27 24 20 16 11 6 3 4 4 4 5 7 9 10 13 14 16 19
1 3 2 2 2 4 3 3 4 6 11 6 9 7 3 3 6 10 5 4 16 29 28 28 27 26 25 24 22 17 12 6 5 6 6 5 7 8 11 13 15 17 18 18
4 2 1 2 1 2 3 3 5 7 7 3 5 4 3 3 5 1 1 4 9 11 28 30 30 24 23 21 21 18 13 9 7 7 7 7 8 10 11 12 14 16 18 19
1 1 1 2 3 3 4 4 5 2 2 4 3 3 7 1 5 5 7 1 4 8 15 27 28 24 21 23 21 18 15 11 9 9 8 8 10 11 13 14 16 17 18 20
4 2 3 3 2 2 7 6 3 3 1 2 3 3 5 3 2 5 5 4 3 4 9 13 22 21 20 21 21 18 16 14 11 10 10 11 12 13 14 15 16 17 19 20
3 3 2 2 2 2 2 5 4 5 2 4 6 1 8 4 5 3 4 6 7 7 9 15 18 19 20 21 21 18 16 13 12 11 11 12 13 14 15 17 17 19 20 20
1 5 2 4 3 3 3 4 3 5 3 5 5 5 5 6 6 6 8 8 9 9 11 12 15 18 18 19 17 15 13 13 12 12 13 14 15 15 16 17 18 19 20 21
1 2 2 4 2 2 1 0 1 0 1 1 5 5 2 5 6 6 7 5 4 6 9 11 13 13 15 15 15 13 12 12 11 12 14 15 16 17 17 17 18 20 21 22
1 3 1 2 1 2 1 1 2 1 2 5 5 6 4 2 5 6 8 7 7 9 10 10 13 15 14 12 13 15 14 12 12 13 14 15 16 16 17 17 19 21 22 23
3 2 1 4 6 7 1 0 0 1 2 4 3 5 4 3 3 2 8 5 3 6 7 9 11 10 11 11 12 11 11 12 12 13 14 13 14 17 19 20 21 21 23 23
1 3 4 6 0 1 1 4 5 3 4 3 3 7 5 3 6 10 14 16 15 12 11 7 9 10 4 1 4 6 11 13 11 11 13 18 21 21 23 23 23 24 26 27
6 3 3 4 3 2 2 4 4 2 1 9 7 7 1 8 13 19 19 18 14 14 14 11 3 5 2 5 7 10 12 10 14 18 18 19 22 23 24 26 28 28 29 30
6 3 7 9 6 3 3 6 7 8 5 12 11 22 9 5 5 9 12 13 13 13 11 5 7 5 6 9 8 7 12 15 17 19 21 23 25 27 29 30 31 32 33 34
5 5 7 12 13 10 13 13 12 14 18 14 20 17 13 9 5 9 9 9 7 6 3 2 2 2 4 7 11 13 15 18 20 23 26 28 30 30 32 33 34 34 35 36
2 4 3 9 11 15 19 16 17 19 17 17 19 17 2 7 10 13 13 12 8 3 0 2 3 5 10 13 15 17 20 22 25 27 29 30 31 32 33 34 34 34 35 35
6 2 1 13 3 6 7 12 12 1 1 4 3 2 4 4 11 16 19 16 9 3 5 8 10 11 12 15 18 22 25 27 29 30 30 31 31 32 31 31 33 34 35 35
8 5 2 6 1 9 3 1 4 8 3 5 5 0 3 10 17 21 13 5 6 5 6 9 10 14 18 22 25 28 30 33 34 33 33 32 30 32 33 35 35 36 35 37
3 4 2 3 4 6 2 4 3 4 1 3 2 5 10 16 16 9 5 5 5 5 9 10 13 17 24 29 31 34 37 36 34 33 32 31 30 34 34 31 30 34 36 36
4 4 3 2 4 4 2 1 3 2 2 7 8 9 13 14 4 3 7 6 6 10 12 14 17 22 30 33 34 36 37 36 35 34 32 31 28 31 32 34 35 36 35 36
3 2 5 7 6 2 3 5 7 2 2 13 15 13 12 4 1 5 9 14 15 17 18 22 25 30 35 35 36 36 36 36 35 35 33 32 33 31 31 34 35 35 35 35
6 5 4 3 3 7 3 1 3 2 5 4 5 5 6 7 10 13 17 19 22 23 26 26 30 34 36 35 35 36 37 36 34 34 33 33 30 31 32 32 32 31 31 32
2 6 3 2 1 7 9 14 9 5 3 3 7 11 14 17 19 21 21 22 23 25 24 26 31 34 34 33 32 35 35 32 32 31 31 31 30 28 26 27 28 28 26 25
3 4 0 4 6 10 12 9 4 1 3 6 8 11 13 16 18 19 21 22 21 22 27 31 31 32 34 32 32 31 30 29 29 29 29 27 24 24 25 23 23 24 24 25
4 4 4 3 11 11 7 5 5 6 8 10 12 15 17 18 19 19 21 23 24 27 29 29 30 32 34 33 33 29 26 25 26 26 24 22 23 24 25 23 23 23 25 25
3 3 2 1 6 5 5 6 2 10 16 19 21 22 20 19 20 21 22 24 27 29 29 30 31 32 33 33 32 25 21 21 21 22 24 25 23 23 25 25 28 24 23 24
Wind_Direction
22 64 50 37 45 349 309 293 281 287 62 323 265 282 283 287 283 206 222 194 195 199 196 193 194 192 188 190 189 187 189 190 212 254 317 327 317 314 325 328 334 335 336 340
296 86 68 20 12 297 284 284 294 318 79 346 300 295 292 309 321 273 208 211 189 189 191 191 192 194 196 193 191 193 196 204 229 264 298 306 304 308 317 317 325 330 334 337
1 81 111 292 269 352 285 300 353 291 328 282 327 289 157 68 40 13 2 227 193 186 187 189 191 199 201 196 197 200 202 218 251 267 288 300 302 308 316 323 325 330 331 332
67 110 292 267 144 358 301 21 321 328 8 298 25 286 332 131 132 122 355 309 257 196 191 191 188 197 204 203 204 208 211 231 260 272 293 300 302 306 307 309 313 320 325 331
219 152 333 296 52 22 262 346 270 277 285 25 188 60 277 102 59 83 44 81 247 239 194 198 187 195 204 211 214 215 222 245 266 270 283 295 295 297 301 305 310 316 320 323
86 63 35 21 307 221 306 303 219 183 178 330 198 111 295 47 12 28 95 112 153 183 202 189 186 190 197 213 221 220 228 246 261 271 289 293 292 294 299 302 305 309 313 315
142 115 110 353 293 224 311 16 340 342 297 231 173 26 245 94 60 28 97 125 139 165 151 162 175 186 200 214 224 223 233 249 259 270 285 293 295 297 298 298 301 304 307 309
78 313 33 0 88 177 31 139 146 262 292 309 199 244 259 106 80 90 102 143 158 174 183 190 196 202 216 229 229 232 242 248 260 277 289 293 293 294 296 297 294 296 301 305
335 222 115 41 38 87 149 262 77 80 212 63 248 256 99 129 96 125 122 116 130 175 191 200 211 221 214 230 235 234 241 254 268 284 293 297 301 302 299 296 295 297 298 299
32 317 103 138 136 37 157 68 76 92 285 281 283 278 237 145 146 164 144 169 170 186 200 205 208 215 221 227 229 237 242 254 268 282 292 299 301 302 302 297 295 295 298 301
110 101 211 130 198 178 152 35 35 7 173 223 297 260 208 186 64 25 22 94 156 222 225 223 226 221 216 221 239 257 265 274 286 297 303 309 314 306 299 297 299 303 304 304
70 164 245 237 244 2 36 179 175 173 244 240 261 274 50 64 66 44 26 10 348 334 320 305 234 184 170 326 278 265 281 293 300 309 315 312 300 298 304 308 308 306 304 302
190 208 318 298 20 14 191 199 180 216 234 227 254 257 97 85 66 19 343 320 324 319 299 278 190 200 217 262 239 255 285 310 310 304 303 298 298 304 306 305 303 303 302 301
164 233 192 236 232 120 204 196 205 194 230 264 239 273 284 43 24 29 21 24 18 22 19 356 265 266 257 262 269 292 301 299 307 305 304 307 307 306 304 302 302 301 300 298
168 218 251 258 274 277 269 265 228 221 241 253 278 279 304 4 57 36 10 3 354 346 353 33 119 204 270 303 308 315 322 317 315 312 310 309 308 305 303 301 299 297 294 294
139 276 320 267 263 259 264 264 260 250 254 261 271 281 339 47 21 348 332 320 310 292 359 56 10 341 348 344 335 327 322 321 318 315 311 308 305 303 300 298 298 296 295 295
156 205 246 280 286 325 263 240 237 129 105 181 265 81 284 325 329 324 324 313 306 350 26 27 6 354 348 340 333 329 325 322 318 315 311 309 308 305 303 302 300 298 298 298
162 158 213 286 101 261 246 189 108 104 40 27 81 225 264 314 322 319 328 10 70 42 7 7 353 347 343 336 328 324 323 322 321 318 316 315 312 306 303 301 298 295 294 294
107 137 240 254 219 297 196 27 68 103 225 70 16 341 343 330 327 67 54 41 53 33 342 337 335 337 338 334 326 323 323 321 319 317 313 311 304 300 302 299 294 293 296 298
73 74 187 314 258 250 105 53 20 117 134 1 15 353 347 329 350 50 27 352 326 326 316 315 317 322 327 328 324 322 322 321 320 316 311 309 307 306 300 299 299 299 299 297
143 170 227 236 257 205 112 327 314 174 21 45 64 48 32 55 58 328 326 320 323 324 321 318 316 317 322 323 323 322 321 320 319 315 313 309 309 309 303 302 303 302 299 295
169 173 203 216 239 266 354 314 77 53 40 84 54 42 11 345 322 318 319 319 321 319 319 319 317 317 319 322 323 321 319 318 314 312 309 311 309 306 305 305 304 303 303 303
297 194 209 186 164 85 77 107 96 101 87 3 342 342 336 327 320 315 313 315 314 315 318 317 316 317 320 324 322 318 319 319 316 315 316 315 317 317 317 315 312 309 306 303
22 46 82 32 116 118 115 100 95 177 340 329 350 326 310 304 308 307 305 312 316 315 317 319 321 322 321 325 326 325 325 321 318 318 320 323 324 323 314 315 315 314 313 313
245 124 208 236 109 111 130 151 120 33 18 352 334 332 332 322 318 314 315 317 318 318 319 322 323 323 327 328 326 329 324 319 319 321 326 327 324 322 322 321 320 317 315 309
253 215 132 61 156 137 113 72 20 2 351 339 330 329 331 323 317 316 316 319 321 322 324 321 324 324 326 326 326 328 323 320 322 324 327 324 322 325 322 324 324 325 319 310